Stations météo

réclame
Mon MeteoGroup
Vinga, Suède (2516): Température de l'air & dewpoint: 11.07.2018 13:00:00 - 17.07.2018 13:00:00 (CEST)Vinga, Suède (2516): Vitesse du vent & gusts: 11.07.2018 13:00:00 - 17.07.2018 13:00:00 (CEST)Vinga, Suède (2516): Direction du vent: 11.07.2018 13:00:00 - 17.07.2018 13:00:00 (CEST)Vinga, Suède (2516): reduced air pressure: 11.07.2018 13:00:00 - 17.07.2018 13:00:00 (CEST)Vinga, Suède (2516): visibility: 11.07.2018 13:00:00 - 17.07.2018 13:00:00 (CEST)Vinga, Suède (2516): Quantités de précipitations: 11.07.2018 13:00:00 - 17.07.2018 13:00:00 (CEST)
Date & Time tt [°C] td [°C] ff [km/h] ff [knt] fx [km/h] fx [knt] dd ppp [hPa] vv [km] rr [mm]
17.07.2018 13:00:00 23,9 17,4 12 7 14 8 SW 1013,0 36 0,0
17.07.2018 12:00:00 24,0 16,0 8 4 16 8 S 1013,2 42 0,0
17.07.2018 11:00:00 24,2 15,9 11 6 14 8 ESE 1013,1 49 0,0
17.07.2018 10:00:00 22,7 15,5 9 5 15 8 E 1013,0 46 0,0
17.07.2018 09:00:00 21,5 16,2 10 5 24 13 ENE 1013,1 41 0,0
17.07.2018 08:00:00 21,1 15,2 15 8 26 14 ENE 1012,9 42 0,0
17.07.2018 07:00:00 20,1 15,1 12 7 20 11 NE 1013,0 49 0,0
17.07.2018 06:00:00 19,8 15,2 11 6 21 11 NE 1013,1 47 0,0
17.07.2018 05:00:00 20,0 15,0 11 6 14 8 NNE 1013,3 50 0,0
17.07.2018 04:00:00 20,0 15,2 11 6 17 9 NNE 1013,4 49 0,0
17.07.2018 03:00:00 20,5 15,7 11 6 16 9 NE 1013,5 50 0,0
17.07.2018 02:00:00 20,6 16,4 12 6 20 11 NNE 1013,6 48 0,0
17.07.2018 01:00:00 20,9 16,7 14 8 26 14 NNE 1013,8 27 0,0
17.07.2018 00:00:00 20,9 17,5 19 10 38 20 NNW 1014,0 21 0,0
16.07.2018 23:00:00 20,7 18,5 28 15 36 19 NNW 1014,0 23 0,0
16.07.2018 22:00:00 20,7 17,9 26 14 40 21 NNW 1014,4 23 0,0
16.07.2018 21:00:00 20,3 17,9 27 14 35 19 NNW 1014,1 25 0,0
16.07.2018 20:00:00 20,7 16,9 32 17 38 20 NNW 1014,0 26 0,0
16.07.2018 19:00:00 21,0 15,8 30 16 41 22 NNW 1014,1 33 0,0
16.07.2018 18:00:00 21,6 15,9 30 16 40 21 NNW 1014,4 38 0,0
16.07.2018 17:00:00 22,0 15,8 29 16 39 21 NNW 1014,7 40 0,0
16.07.2018 16:00:00 21,9 15,3 28 15 34 19 NW 1015,1 36 0,0
16.07.2018 15:00:00 21,9 15,3 25 14 31 17 NW 1015,8 34 0,0
16.07.2018 14:00:00 22,0 15,6 22 12 27 15 NW 1016,4 41 0,0
16.07.2018 13:00:00 21,5 14,6 20 11 24 13 NW 1016,6 37 0,0
16.07.2018 12:00:00 21,4 15,0 14 8 18 10 NW 1016,9 42 0,0
16.07.2018 11:00:00 20,5 13,9 11 6 16 9 NW 1017,0 36 0,0
16.07.2018 10:00:00 20,2 15,0 6 3 9 5 NW 1017,1 36 0,0
16.07.2018 09:00:00 19,7 15,3 6 4 19 10 NW 1017,3 23 0,0
16.07.2018 08:00:00 19,0 15,9 5 3 9 5 ENE 1017,2 15 0,0
16.07.2018 07:00:00 18,8 14,5 8 5 11 6 NNW 1017,2 41 0,0
16.07.2018 06:00:00 18,1 15,0 8 4 11 6 WNW 1017,1 33 0,0
16.07.2018 05:00:00 18,0 16,0 7 4 10 5 SSW 1017,2 10 0,0
16.07.2018 04:00:00 18,0 15,8 7 4 10 5 SW 1017,2 11 0,0
16.07.2018 03:00:00 18,0 15,6 6 4 9 5 SSW 1017,2 12 0,0
16.07.2018 02:00:00 17,8 15,2 3 2 5 3 SSE 1017,1 13 0,0
16.07.2018 01:00:00 17,4 14,9 0 0 3 1 N 1017,3 15 0,0
16.07.2018 00:00:00 17,5 14,8 3 2 11 6 NNW 1017,2 14 0,0
15.07.2018 23:00:00 17,5 14,8 8 4 14 7 NNW 1017,1 15 0,0
15.07.2018 22:00:00 17,4 14,7 13 7 20 11 NNW 1016,8 13 0,0
15.07.2018 21:00:00 17,1 14,7 16 9 26 14 NNW 1016,8 9 0,0
15.07.2018 20:00:00 17,5 14,6 14 7 20 11 NNW 1016,8 11 0,0
15.07.2018 19:00:00 18,2 14,3 13 7 20 11 NNW 1016,8 17 0,0
15.07.2018 18:00:00 18,7 14,4 11 6 17 9 NW 1017,2 18 0,0
15.07.2018 17:00:00 19,8 14,4 9 5 15 8 NW 1017,1 18 0,0
15.07.2018 16:00:00 19,0 13,6 7 4 16 9 SW 1017,4 20 0,0
15.07.2018 15:00:00 18,9 13,7 16 8 24 13 SW 1017,3 21 0,0
15.07.2018 14:00:00 18,8 13,9 15 8 21 11 WSW 1017,3 19 0,0
15.07.2018 13:00:00 18,3 14,2 16 8 25 13 WSW 1017,1 16 0,0
15.07.2018 12:00:00 17,9 14,4 14 8 25 13 W 1017,0 12 0,0
15.07.2018 11:00:00 17,9 14,6 18 10 28 15 WNW 1016,9 12 0,0
15.07.2018 10:00:00 17,2 14,3 21 12 32 17 WNW 1016,6 13 0,0
15.07.2018 09:00:00 16,9 13,8 24 13 35 19 WNW 1016,3 17 0,0
15.07.2018 08:00:00 17,0 14,1 18 10 29 16 W 1015,8 16 0,0
15.07.2018 07:00:00 16,9 13,4 19 10 29 15 W 1015,4 21 0,0
15.07.2018 06:00:00 16,9 13,6 16 9 27 14 W 1015,2 23 0,0
15.07.2018 05:00:00 17,1 13,8 18 10 27 15 WSW 1015,1 21 0,0
15.07.2018 04:00:00 17,1 13,6 18 10 29 15 WSW 1015,1 20 0,0
15.07.2018 03:00:00 17,1 13,6 16 9 29 16 WSW 1015,2 25 0,0
15.07.2018 02:00:00 16,9 13,0 22 12 30 16 WSW 1015,3 29 0,0
15.07.2018 01:00:00 17,0 13,1 22 12 32 18 SW 1015,3 28 0,0
15.07.2018 00:00:00 16,8 12,7 21 11 29 16 SW 1015,4 34 0,0
14.07.2018 23:00:00 16,8 12,3 18 10 26 14 WSW 1015,4 29 0,0
14.07.2018 22:00:00 16,7 12,4 17 9 31 17 WSW 1015,7 28 0,0
14.07.2018 21:00:00 17,4 12,7 24 13 31 17 WSW 1015,3 25 0,0
14.07.2018 20:00:00 18,4 11,7 17 9 23 13 SW 1015,5 35 0,0
14.07.2018 19:00:00 18,7 11,8 19 10 30 16 SW 1015,8 37 0,0
14.07.2018 18:00:00 18,1 12,1 19 11 29 16 SW 1015,9 35 0,0
14.07.2018 17:00:00 17,5 12,4 18 10 31 17 SW 1016,3 35 0,0
14.07.2018 16:00:00 17,2 12,1 21 12 29 16 SW 1016,4 41 0,0
14.07.2018 15:00:00 17,1 11,4 20 11 29 16 SW 1016,7 39 0,0
14.07.2018 14:00:00 17,4 12,1 18 10 29 15 SW 1017,0 39 0,0
14.07.2018 13:00:00 17,1 12,0 19 10 24 13 SSW 1017,0 34 0,0
14.07.2018 12:00:00 17,0 11,9 14 8 27 15 SW 1017,2 31 0,0
14.07.2018 11:00:00 17,0 11,7 18 10 24 13 SW 1017,2 25 0,0
14.07.2018 10:00:00 16,5 11,8 14 8 23 13 SW 1016,9 25 0,0
14.07.2018 09:00:00 16,0 11,6 14 8 21 12 SW 1016,9 34 0,0
14.07.2018 08:00:00 16,1 11,9 14 8 22 12 WSW 1016,5 29 0,0
14.07.2018 07:00:00 16,1 12,5 16 8 23 12 WSW 1016,2 26 0,0
14.07.2018 06:00:00 15,8 12,4 13 7 22 12 W 1016,0 21 0,0
14.07.2018 05:00:00 15,7 12,4 14 7 24 13 W 1016,2 24 0,0
14.07.2018 04:00:00 15,7 12,8 16 8 23 13 W 1016,2 20 0,0
14.07.2018 03:00:00 15,9 13,0 15 8 22 12 W 1016,2 19 0,0
14.07.2018 02:00:00 16,0 13,1 15 8 24 13 W 1016,4 19 0,0
14.07.2018 01:00:00 16,2 12,9 18 10 29 16 W 1016,2 21 0,0
14.07.2018 00:00:00 17,0 13,7 19 10 35 19 W 1016,1 20 0,0
13.07.2018 23:00:00 18,1 13,8 19 10 27 14 W 1015,9 23 0,0
13.07.2018 22:00:00 19,1 13,1 17 9 23 12 W 1015,8 27 0,0
13.07.2018 21:00:00 20,2 13,9 16 8 24 13 W 1015,5 25 0,0
13.07.2018 20:00:00 21,1 12,8 17 9 29 16 WNW 1015,3 34 0,0
13.07.2018 19:00:00 21,5 12,6 24 13 32 17 WNW 1015,2 34 0,0
13.07.2018 18:00:00 22,0 15,4 25 14 31 17 WNW 1015,2 27 0,0
13.07.2018 17:00:00 22,0 17,6 21 11 25 13 WNW 1015,4 15 0,0
13.07.2018 16:00:00 22,4 17,7 19 10 28 15 WNW 1015,1 18 0,0
13.07.2018 15:00:00 22,1 16,8 23 12 27 15 WNW 1015,0 24 0,0
13.07.2018 14:00:00 22,5 18,1 19 10 25 14 WNW 1015,3 20 0,0
13.07.2018 13:00:00 21,9 17,3 16 9 19 10 WNW 1015,5 30 0,0
13.07.2018 12:00:00 21,2 17,6 11 6 19 10 WNW 1015,6 20 0,0
13.07.2018 11:00:00 21,7 18,5 12 7 17 9 W 1015,3 15 0,0
13.07.2018 10:00:00 21,6 18,4 8 5 13 7 W 1015,3 25 0,0
13.07.2018 09:00:00 21,3 17,5 7 4 10 5 NW 1015,2 28 0,0
13.07.2018 08:00:00 20,9 17,7 6 3 10 6 WNW 1015,1 34 0,0
13.07.2018 07:00:00 20,6 18,2 9 5 13 7 NW 1015,0 26 0,0
13.07.2018 06:00:00 20,0 18,0 8 5 16 9 NNW 1015,0 23 0,0
13.07.2018 05:00:00 19,4 17,5 13 7 22 12 WNW 1015,0 30 0,0
13.07.2018 04:00:00 19,8 17,8 16 9 21 11 NW 1015,1 43 0,0
13.07.2018 03:00:00 20,0 18,1 11 6 15 8 W 1014,8 48 0,0
13.07.2018 02:00:00 20,2 17,4 13 7 17 9 WNW 1015,0 50 0,0
13.07.2018 01:00:00 20,3 17,1 11 6 18 10 WNW 1014,9 50 0,0
13.07.2018 00:00:00 20,5 17,3 13 7 17 9 NW 1015,0 50 0,0
12.07.2018 23:00:00 20,6 16,8 14 8 19 11 NNW 1015,1 50 0,0
12.07.2018 22:00:00 20,9 17,1 14 8 20 11 NNW 1015,2 50 0,0
12.07.2018 21:00:00 21,5 16,7 14 8 29 16 N 1015,1 50 0,0
12.07.2018 20:00:00 21,9 15,5 19 10 32 18 N 1014,8 49 0,0
12.07.2018 19:00:00 22,8 15,4 24 13 32 17 NNW 1014,9 49 0,0
12.07.2018 18:00:00 23,4 15,7 20 11 26 14 NNW 1014,9 37 0,0
12.07.2018 17:00:00 23,6 15,9 22 12 29 15 NW 1014,8 45 0,0
12.07.2018 16:00:00 23,8 14,8 21 11 29 16 NW 1014,9 43 0,0
12.07.2018 15:00:00 23,8 15,0 23 12 31 17 NW 1015,0 45 0,0
12.07.2018 14:00:00 23,9 14,9 24 13 31 17 NW 1015,2 50 0,0
12.07.2018 13:00:00 23,5 15,0 22 12 29 15 NW 1015,6 37 0,0
12.07.2018 12:00:00 22,9 16,7 21 11 29 15 NW 1015,9 39 0,0
12.07.2018 11:00:00 21,9 16,6 9 5 15 8 W 1015,9 40 0,0
12.07.2018 10:00:00 22,2 14,8 9 5 11 6 WSW 1015,8 50 0,0
12.07.2018 09:00:00 22,1 12,9 5 3 9 5 SSE 1015,7 42 0,0
12.07.2018 08:00:00 20,7 14,8 3 2 8 4 SSE 1015,7 44 0,0
12.07.2018 07:00:00 20,3 15,1 4 2 11 6 E 1015,7 39 0,0
12.07.2018 06:00:00 19,3 15,4 9 5 11 6 E 1015,7 44 0,0
12.07.2018 05:00:00 18,7 14,6 7 4 9 5 ENE 1015,9 50 0,0
12.07.2018 04:00:00 19,0 14,7 9 5 10 5 NNE 1015,9 50 0,0
12.07.2018 03:00:00 19,6 14,6 8 4 16 8 NNE 1015,9 50 0,0
12.07.2018 02:00:00 20,2 15,0 10 5 13 7 NE 1016,1 50 0,0
12.07.2018 01:00:00 20,9 15,2 9 5 17 9 N 1016,4 50 0,0
12.07.2018 00:00:00 21,1 16,3 16 8 23 12 N 1016,4 50 0,0
11.07.2018 23:00:00 21,4 16,4 16 9 22 12 N 1016,4 50 0,0
11.07.2018 22:00:00 21,3 16,5 14 7 23 13 N 1016,5 50 0,0
11.07.2018 21:00:00 21,6 16,3 19 10 24 13 NNW 1016,4 50 0,0
11.07.2018 20:00:00 22,0 16,7 20 11 29 16 NNW 1016,3 48 0,0
11.07.2018 19:00:00 22,0 16,5 21 11 27 15 NNW 1016,3 48 0,0
11.07.2018 18:00:00 23,2 16,0 19 10 26 14 NW 1016,7 41 0,0
11.07.2018 17:00:00 23,5 17,5 18 10 23 13 NW 1017,0 43 0,0
11.07.2018 16:00:00 22,8 17,5 17 9 22 12 WNW 1017,3 41 0,0
11.07.2018 15:00:00 23,5 17,0 18 10 22 12 WNW 1017,6 41 0,0
11.07.2018 14:00:00 23,1 17,8 14 8 20 11 WNW 1017,9 35 0,0
11.07.2018 13:00:00 22,2 16,9 12 7 18 10 W 1018,2 38 0,0

tt = Température de l'air
td = dewpoint
ff = Vitesse du vent
fx = gusts
dd = Direction du vent
ppp = reduced air pressure
vv = visibility
rr = Quantités de précipitations

stations d'obs. à proximité